ONEWEB-0170

Last updated on April 25, 2021, 12:02 a.m. UTC

1 48067U 21025AB  21114.58336806 -.01103578  00000-0 -54908-1 0  9997
2 48067  87.4174 339.3691 0010927 151.8901 224.1829 15.20738445  1789
UTC
Height (km)
Latitude
Longitude
Inclination
Orbital Period
UTC large
Height (km)
Speed (km/s)
/
Latitude / Longitude
Inclination (degrees)
Orbital Period (minutes)
Azimuth
Elevation
Range (km)
Doppler Factor
iOS Compass Heading
iOS Angle

Next 30 passes for location: Hong Kong

Rise time Rise Azimuth (degrees) Set time Set Azimuth (degrees) Duration Max altitude (degrees)

No matching passes for this satellites